COSMOS 2522 (752)

Last updated on Mon Sep 21 2026 00:03:22 GMT+0000 (Coordinated Universal Time)

1 42939U 17055A 26262.91323200 -.00000013 00000+0 00000+0 0 9996 2 42939 64.0794 188.6622 0009277 236.0970 123.8276 2.13102003 69998
UTC large
Height (km)
Speed (km/s)
/
Latitude / Longitude
Inclination (degrees)
Orbital Period (minutes)
Azimuth
Elevation
Range (km)
Doppler Factor

Next 0 passes for location: London (51.5072 / 0.1276)

No passes found over London.
COSMOS 2522 (752)